Location: Haliburton Scout Reserve
(45.0900°N, 78.3200°W)
Time: 16:17:47
(UTC-05:00)

Transit 2A Rocket - Visible Passes

Search period start: 30 November 2023 00:00
Search period end: 10 December 2023 00:00
Orbit: 593 x 903 km, 66.7° (Epoch: 29 November)

Date Brightness Start Highest point End Pass type
(mag) Time Alt. Az. Time Alt. Az. Time Alt. Az.
30 Nov 7.0 05:35:57 10° N 05:38:30 15° NE 05:41:03 10° ENE visible
01 Dec 5.3 06:33:38 10° NNW 06:37:52 50° NE 06:42:16 10° SE visible
02 Dec 6.2 05:50:26 11° NNW 05:54:05 30° NE 05:58:01 10° ESE visible
03 Dec 6.8 05:08:11 14° N 05:10:10 19° NE 05:13:20 10° E visible
03 Dec 4.6 06:48:42 10° NW 06:53:00 65° WSW 06:57:31 10° SSE visible
04 Dec 7.2 04:25:58 12° NNE 04:26:08 12° NE 04:27:58 10° ENE visible
04 Dec 4.8 06:05:49 15° NNW 06:09:23 69° NE 06:13:55 10° SE visible
05 Dec 5.7 05:23:39 25° N 05:25:38 38° NE 05:29:53 10° ESE visible
06 Dec 6.5 04:41:32 23° NE 04:41:47 24° NE 04:45:25 10° E visible
06 Dec 4.9 06:21:23 18° NW 06:24:26 46° WSW 06:28:50 10° S visible
07 Dec 7.5 03:59:29 13° ENE 03:59:29 13° ENE 04:00:28 10° ENE visible
07 Dec 4.4 05:39:20 41° NW 05:40:51 87° WSW 05:45:26 10° SSE visible
08 Dec 5.2 04:57:21 51° ENE 04:57:21 51° ENE 05:01:37 10° SE visible
08 Dec 6.1 06:37:13 14° WNW 06:39:16 19° WSW 06:42:28 10° SSW visible
09 Dec 7.0 04:15:25 21° E 04:15:25 21° E 04:17:23 10° ESE visible
09 Dec 5.2 05:55:17 33° W 05:55:49 34° WSW 05:59:59 10° S visible
